C969 KONT-KCMA

Flight info

Callsign C969
Flight time N/A
Altitude VFR/045
Route VFR NW
Aircraft C172/L-VGD/C

Departure

Time 2026-05-04 00:44
Airport Ontario International Airport (KONT)

Arrival

Time N/A
Airport Camarillo International Airport (KCMA)
Time Latitude Longitude Altitude Speed Heading
2026-05-04 00:13 34.05910 -117.61337 930 ft 0 kts 178°
2026-05-04 00:37 34.05886 -117.61317 929 ft 13 kts 138°
2026-05-04 00:37 34.05857 -117.61285 929 ft 0 kts 139°
2026-05-04 00:37 34.05856 -117.61284 929 ft 4 kts 139°
2026-05-04 00:38 34.05800 -117.61210 929 ft 15 kts 98°
2026-05-04 00:38 34.05798 -117.61086 929 ft 15 kts 90°
2026-05-04 00:38 34.05797 -117.60956 930 ft 15 kts 89°
2026-05-04 00:38 34.05798 -117.60826 932 ft 17 kts 90°
2026-05-04 00:39 34.05798 -117.60658 935 ft 24 kts 90°
2026-05-04 00:39 34.05796 -117.60440 934 ft 29 kts 90°
2026-05-04 00:39 34.05798 -117.60194 933 ft 28 kts 88°
2026-05-04 00:39 34.05800 -117.59951 927 ft 28 kts 90°
2026-05-04 00:40 34.05800 -117.59719 925 ft 27 kts 89°
2026-05-04 00:40 34.05799 -117.59510 922 ft 24 kts 91°
2026-05-04 00:40 34.05799 -117.59329 923 ft 19 kts 92°
2026-05-04 00:40 34.05797 -117.59136 926 ft 22 kts 91°
2026-05-04 00:41 34.05800 -117.58937 928 ft 27 kts 89°
2026-05-04 00:41 34.05801 -117.58717 931 ft 24 kts 90°
2026-05-04 00:41 34.05798 -117.58546 929 ft 19 kts 91°
2026-05-04 00:41 34.05797 -117.58406 927 ft 9 kts 105°
2026-05-04 00:42 34.05786 -117.58382 929 ft 0 kts 136°
2026-05-04 00:43 34.05776 -117.58373 928 ft 9 kts 153°
2026-05-04 00:43 34.05696 -117.58409 929 ft 15 kts 269°
2026-05-04 00:43 34.05695 -117.58637 928 ft 51 kts 270°
2026-05-04 00:43 34.05687 -117.59194 1005 ft 75 kts 268°
2026-05-04 00:44 34.05685 -117.59849 1189 ft 80 kts 270°
2026-05-04 00:44 34.05687 -117.60537 1378 ft 83 kts 271°
2026-05-04 00:44 34.05692 -117.61246 1583 ft 87 kts 270°
2026-05-04 00:44 34.05686 -117.61971 1826 ft 86 kts 269°
2026-05-04 00:45 34.05673 -117.62685 2080 ft 83 kts 268°
2026-05-04 00:45 34.05652 -117.63348 2310 ft 82 kts 269°
2026-05-04 00:45 34.05638 -117.63936 2483 ft 85 kts 268°
2026-05-04 00:45 34.05624 -117.64676 2660 ft 90 kts 270°
2026-05-04 00:46 34.05637 -117.65440 2846 ft 93 kts 272°
2026-05-04 00:46 34.05661 -117.66227 3023 ft 96 kts 272°
2026-05-04 00:46 34.05678 -117.67059 3157 ft 103 kts 271°
2026-05-04 00:46 34.05682 -117.67918 3361 ft 99 kts 270°
2026-05-04 00:47 34.05693 -117.68734 3550 ft 99 kts 272°
2026-05-04 00:47 34.05707 -117.69594 3628 ft 109 kts 271°
2026-05-04 00:47 34.05733 -117.70496 3789 ft 107 kts 274°
2026-05-04 00:47 34.05803 -117.71393 3900 ft 111 kts 277°
2026-05-04 00:48 34.05890 -117.72318 4037 ft 109 kts 276°
2026-05-04 00:48 34.05975 -117.73227 4167 ft 109 kts 276°
2026-05-04 00:48 34.06049 -117.74129 4348 ft 105 kts 276°
2026-05-04 00:48 34.06127 -117.74997 4443 ft 110 kts 277°
2026-05-04 00:49 34.06221 -117.75941 4515 ft 114 kts 277°
2026-05-04 00:49 34.06307 -117.76905 4573 ft 117 kts 276°
2026-05-04 00:49 34.06385 -117.77891 4594 ft 121 kts 274°
2026-05-04 00:49 34.06441 -117.78917 4583 ft 120 kts 274°
2026-05-04 00:50 34.06488 -117.79907 4562 ft 120 kts 272°